Regional Weather Roundup
Issued by NWS Upton, NY

Current Version | Previous Version | Graphics & Text | Print | Product List | Glossary Off
Versions: 1 2 3 4 5 6 7 8 9 10 11 12 13 14 15 16 17 18 19 20 21 22 23 24 25 26 27 28 29 30 31 32 33 34 35 36 37 38 39 40 41 42 43 44 45 46 47 48 49 50

000
ASUS41 KOKX 220605
RWROKX

REGIONAL WEATHER ROUNDUP
NATIONAL WEATHER SERVICE NEW YORK NY
200 AM EDT MON SEP 22 2014

NOTE: "FAIR" INDICATES FEW OR NO CLOUDS BELOW 12,000 FEET WITH NO
SIGNIFICANT WEATHER AND/OR OBSTRUCTIONS TO VISIBILITY.

NYZ071-072-176-178-NJZ106-104-220700-
NEW YORK CITY METRO AREA


CITY           SKY/WX    TMP DP  RH WIND       PRES   REMARKS
CENTRAL PARK   MOCLDY    68  60  75 VRB7      29.69R
LAGUARDIA APRT MOCLDY    70  62  76 NW12      29.65R
KENNEDY INTL   CLOUDY    71  65  81 NW16      29.66R
NEWARK/LIBERTY CLOUDY    69  62  78 NW9       29.66R
BRNX BOT. GARD   N/A     66  61  82 NW2       29.67R
TETERBORO      MOCLDY    67  59  75 NW5       29.65R
$$

NYZ177-179-078>081-220700-
LONG ISLAND NEW YORK

CITY           SKY/WX    TMP DP  RH WIND       PRES   REMARKS
FARMINGDALE    CLOUDY    70  67  90 W7        29.64S
ISLIP          CLOUDY    70  67  90 W7        29.61S
SHIRLEY        LGT RAIN  70  68  93 W7        29.64R
WESTHAMPTON    MOCLDY    70  68  93 W10       29.64R
MONTAUK POINT    N/A     68  67  96 SW7       29.62S
$$

NYZ052-065-067-220700-
HUDSON VALLEY

CITY           SKY/WX    TMP DP  RH WIND       PRES   REMARKS
WHITE PLAINS   MOCLDY    65  61  87 W9        29.65R
NEWBURGH       PTCLDY    63  61  94 W6        29.67R
MONTGOMERY     MOCLDY    61  59  93 W5        29.66R
POUGHKEEPSIE   CLOUDY    65  62  90 S3        29.63S
ALBANY         CLOUDY    60  58  92 CALM      29.63S
$$

NJZ001-105-106-008-010-013-015-019>022-104-220700-
NEW JERSEY

CITY           SKY/WX    TMP DP  RH WIND       PRES   REMARKS
NEWARK/LIBERTY CLOUDY    69  62  78 NW9       29.66R
TETERBORO      MOCLDY    67  59  75 NW5       29.65R
CALDWELL       MOCLDY    65  58  78 CALM      29.68R
MORRISTOWN     MOCLDY    66  57  72 CALM      29.68R
SOMERVILLE     MOCLDY    67  62  84 NW3       29.67R
LINDEN         FAIR      73  64  73 NW5       29.68R
SUSSEX         PTCLDY    62  59  90 CALM      29.69R FOG
ANDOVER          N/A     61  60  97 CALM      29.70R
TRENTON        PTCLDY    68  60  75 NW9       29.69R
MILLVILLE      LGT RAIN  69  62  78 W10       29.72R
ATLANTIC CITY  PTCLDY    69  64  84 W8        29.69R
WRIGHTSTOWN    CLOUDY    70  62  77 NW14      29.67R
TOMS RIVER     MOCLDY    70  63  78 W8        29.68R
BELMAR         CLOUDY    66  61  82 W7        29.67R
$$

PAZ047>061-062-071-220700-
EASTERN PENNSYLVANIA

CITY           SKY/WX    TMP DP  RH WIND       PRES   REMARKS
PHILADELPHIA   MOCLDY    71  61  70 W9        29.72R
ALLENTOWN      CLEAR     65  54  67 W6        29.71R
SCRANTON       PTCLDY    61  58  90 SW5       29.73R
$$

CTZ002-004>006-009-010-012-RIZ004-006-007-MAZ004-011-015-220700-
SOUTHERN NEW ENGLAND
 IN CT

CITY           SKY/WX    TMP DP  RH WIND       PRES   REMARKS
BRADLEY INTL   MOCLDY    68  60  75 W6        29.60R
HARTFORD       CLOUDY    68  65  90 VRB7      29.61R
DANBURY        LGT RAIN  64  62  93 VRB3      29.66R
WTRBRY/OXFORD  CLOUDY    64  61  88 NW3       29.64S
BRIDGEPORT     CLOUDY    69  65  86 W7        29.63R
MERIDEN        CLOUDY    68  64  87 NW5       29.61S
NEW HAVEN      LGT RAIN  71  66  84 VRB3      29.62R
CHESTER        CLOUDY    68  68 100 W8        29.63R FOG
GROTON         CLOUDY    68  68 100 W10       29.59S FOG
WILLIMANTIC    CLOUDY    68  66  93 MISG      29.60S

 IN RI

CITY           SKY/WX    TMP DP  RH WIND       PRES   REMARKS
PROVIDENCE     CLOUDY    67  66  97 W10       29.58S
BLOCK ISLAND   CLOUDY    66  64  94 SW12      29.61S VSB 1/2
WESTERLY       CLOUDY    69  68  96 SW8       29.60S FOG

 IN MA

CITY           SKY/WX    TMP DP  RH WIND       PRES   REMARKS
BOSTON         CLOUDY    69  67  93 W13       29.54S
WORCESTER      MOCLDY    66  64  93 W14G24    29.58F
WESTFIELD      CLOUDY    67  55  65 W3        29.60S
PROVINCETOWN   CLEAR     66  63  88 SW10      29.54S
NANTUCKET      PTCLDY    67  65  93 W10       29.57R
$$

ANZ330-335-338-340-345-350-353-355-220700-
COASTAL MARINE OBSERVATIONS


STATION/POSITION TIME  SKY/WX   TEMP    WIND        PRES    VSBY  WAVE
                                AIR SEA DIR/SP/G                  HT/PER
                 (UTC)          (F)     (DEG/KT/KT) (MB)    (MI)  (FT/S)
NY HARB ENTRANCE 0600            71 71  270/ 12/ 14 1004.5          3/ 8
4S FIRE IS       0600               69                N/A           4/ 7
20S FIRE ISLAND  0600            72 69  260/ 17/ 21 1003.3          4/ 7
23SW MTP         0600                                 N/A           3/ 8
HUDSON CANYON    0600            70 70  230/ 14/ 16 1004.4          6/ 8
EXECUTION ROCKS  0600            70 70  310/ 10/ 14   N/A
WESTERN LI SOUND 0600            70     300/ 12/ 16   N/A           0
CENTRAL LI SOUND 0500            68 71  240/ 14/ 16   N/A           1/ 2
EASTERN LI SOUND 0500            69 68  250/ 12/ 16   N/A
ROBBINS REEF     0600            71     330/ 13/ 17 1002.9
$$


>>>>>>>>>>>>>>>>>>>>>>>>>>>> KEY <<<<<<<<<<<<<<<<<<<<<<<<<<<
>                                                          <
>     SKY/WX - SKY CONDITION/PRESENT WEATHER               <
>     TMP    - TEMPERATURE IN FAHRENHEIT                   <
>     DP     - DEWPOINT IN FAHRENHEIT                      <
>     RH     - RELATIVE HUMIDITY IN PERCENT                <
>     WIND   - DIRECTION AND SPEED IN MPH                  <
>     PRES   - MEAN SEA LEVEL PRESSURE IN INCHES OF HG     <
>     WCI    - WIND CHILL INDEX                            <
>     VSB    - VISIBILITY IN MILES                         <
>     HX     - HEAT INDEX                                  <
>     TC     - TEMPERATURE IN CELSIUS                      <
>     VRB    - VARIABLE WIND DIRECTION                     <
>                                                          <
>>>>>>>>>>>>>>>>>>>>>>>>>>>> KEY <<<<<<<<<<<<<<<<<<<<<<<<<<<




USA.gov is the U.S. government's official web portal to all federal, state and local government web resources and services.